Home > Weather > Halle > Past weeks

Flag for Germany Weather for the Past 2 Weeks in Halle, Saxony-Anhalt, Germany

Now
55 °F

Passing clouds.


Feels Like: 53 °F
Forecast: 40 / 60 °F
Wind: 9 mph from Southwest

Location: Leipzig-Schkeuditz

Current Time: Apr 29, 2016 at 6:08:15 PM

Latest Report: Apr 29, 2016 at 5:20 PM


Visibility: N/A

Pressure: 30.04 "Hg

Humidity: 38%

Dew Point: 30 °F

Location of HalleLocation

Historic Weather in Halle — Graph

°F

Halle Temperature Yesterday

Maximum temperature yesterday: 52 °F (at 5:20 PM)
Minimum temperature yesterday: 36 °F (at 11:20 PM)
Average temperature yesterday: 42 °F

High & Low Weather Summary for the Past Weeks

 TemperatureHumidityPressure
High61 °F (Apr 21, 4:50 PM)100% (Apr 17, 6:50 AM)30.42 "Hg (Apr 17, 6:50 AM)
Low28 °F (Apr 25, 2:20 AM)33% (Apr 22, 4:20 PM)29.47 "Hg (Apr 26, 3:20 AM)
Average45 °F71%29.90 "Hg
* Reported Apr 14 4:20 PM — Apr 29 4:50 PM, Halle, Weather by CustomWeather, © 2016

Note: Actual official high and low records may vary slightly from our data, if they occured in-between our weather recording intervals... More about our weather records

Advertising

Halle Weather History for the Previous 24 Hours

Scroll right to see more
 ConditionsComfort  
Time TempWeatherWind HumidityBarometerVisibility
4:50 PM
Fri, Apr 29
55 °FSunny.13 mph38%30.04 "Hg10 mi
4:20 PM55 °FSunny.10 mph41%30.07 "Hg10 mi
3:50 PM55 °FPassing clouds.10 mph38%30.07 "HgN/A
3:20 PM55 °FSunny.12 mph38%30.07 "Hg10 mi
2:50 PM55 °FSunny.12 mph38%30.07 "Hg10 mi
2:20 PM55 °FSunny.13 mph38%30.07 "Hg10 mi
1:50 PM55 °FPassing clouds.12 mph38%30.07 "HgN/A
1:20 PM54 °FSunny.12 mph41%30.07 "Hg10 mi
12:50 PM55 °FPassing clouds.9 mph38%30.07 "HgN/A
12:20 PM52 °FPassing clouds.9 mph44%30.07 "HgN/A
11:50 AM54 °FPassing clouds.12 mph44%30.07 "HgN/A
11:20 AM52 °FPassing clouds.14 mph44%30.07 "HgN/A
10:50 AM52 °FPassing clouds.14 mph47%30.07 "HgN/A
10:20 AM50 °FPassing clouds.14 mph54%30.07 "HgN/A
9:50 AM50 °FSunny.12 mph58%30.09 "Hg10 mi
9:20 AM46 °FSunny.10 mph66%30.07 "Hg10 mi
8:50 AM45 °FPassing clouds.9 mph66%30.07 "HgN/A
8:20 AM43 °FSunny.10 mph71%30.07 "Hg10 mi
7:20 AM37 °FSunny.10 mph81%30.07 "Hg10 mi
6:50 AM36 °FSunny.10 mph87%30.07 "Hg10 mi
6:20 AM34 °FClear.10 mph93%30.07 "Hg10 mi
5:50 AM34 °FClear.10 mph87%30.04 "Hg10 mi
5:20 AM34 °FPassing clouds.12 mph87%30.04 "HgN/A
4:20 AM36 °FClear.9 mph87%30.04 "Hg10 mi
3:50 AM34 °FClear.9 mph87%30.04 "Hg10 mi
3:20 AM34 °FClear.9 mph87%30.04 "Hg10 mi
2:50 AM34 °FClear.9 mph87%30.04 "Hg10 mi
2:20 AM34 °FPassing clouds.8 mph87%30.04 "HgN/A
1:50 AM34 °FClear.9 mph87%30.04 "Hg10 mi
1:20 AM34 °FClear.6 mph87%30.04 "Hg10 mi
12:50 AM36 °FPassing clouds.6 mph81%30.04 "HgN/A
12:20 AM36 °FClear.3 mph81%30.04 "Hg10 mi
11:50 PM
Thu, Apr 28
36 °FPassing clouds.5 mph81%30.04 "HgN/A
11:20 PM36 °FClear.2 mph75%30.04 "Hg10 mi
10:50 PM41 °FClear.3 mph70%30.01 "Hg10 mi
10:20 PM39 °FPassing clouds.1 mph75%30.01 "HgN/A
9:50 PM39 °FPassing clouds.2 mph81%30.01 "HgN/A
9:20 PM39 °FPassing clouds.2 mph75%30.01 "HgN/A
8:50 PM43 °FPassing clouds.5 mph71%30.01 "HgN/A
8:20 PM45 °FPassing clouds.6 mph66%30.01 "HgN/A
7:50 PM45 °FPassing clouds.10 mph66%29.98 "HgN/A
7:20 PM48 °FScattered showers. Passing clouds.9 mph50%29.98 "HgN/A
6:50 PM48 °FScattered showers. Scattered clouds.15 mph54%29.98 "HgN/A
6:20 PM50 °FScattered clouds.14 mph50%29.95 "HgN/A
Weather by CustomWeather, © 2016

See weather overviewHow to use our weather pages